This is the latest recevied weather packets stored in our database for station/object WX8ASH-13. If no packets are shown the sender has not sent any weather packets the latest 1 day(s).
| Time | Temp. | Humidity | Pressure | Rain* | Wind** | Luminosity | Snow |
|---|---|---|---|---|---|---|---|
| 1778033127 | 10° C | 99% | 1009.6 hPa | 2.79 mm | - | - | - |
| 1778032226 | 10° C | 99% | 1009.3 hPa | 3.81 mm | - | - | - |
| 1778031928 | 10.56° C | 99% | 1009.2 hPa | 4.32 mm | - | - | - |
| 1778031628 | 10° C | 99% | 1009.1 hPa | 4.83 mm | - | - | - |
| 1778031327 | 10° C | 99% | 1008.9 hPa | 6.35 mm | - | - | - |
| 1778030728 | 10.56° C | 99% | 1008.9 hPa | 5.84 mm | - | - | - |
| 1778030131 | 10.56° C | 98% | 1008.8 hPa | 10.16 mm | - | - | - |
| 1778029825 | 10.56° C | 98% | 1008.8 hPa | 9.65 mm | - | - | - |
| 1778029228 | 11.11° C | 98% | 1008.8 hPa | 8.64 mm | - | - | - |
| 1778028624 | 11.11° C | 98% | 1008.8 hPa | 7.37 mm | - | - | - |
| 1778028024 | 11.11° C | 98% | 1008.4 hPa | 6.1 mm | - | - | - |
| 1778027725 | 11.67° C | 98% | 1008.5 hPa | 4.57 mm | - | - | - |
| 1778027427 | 11.67° C | 98% | 1008.4 hPa | 5.33 mm | - | - | - |
| 1778026527 | 11.67° C | 98% | 1008.1 hPa | 1.52 mm | - | - | - |
| 1778023522 | 13.89° C | 97% | 1008.2 hPa | 1.02 mm | - | - | - |
| 1778022622 | 13.89° C | 97% | 1008.5 hPa | 2.03 mm | - | - | - |
| 1778020822 | 13.89° C | 97% | 1008.7 hPa | 5.08 mm | - | - | - |
| 1778020522 | 13.89° C | 97% | 1008.7 hPa | 4.83 mm | - | - | - |
| 1778019921 | 14.44° C | 97% | 1008.7 hPa | 4.32 mm | - | - | - |
| 1778018123 | 15° C | 96% | 1008.5 hPa | 0.25 mm | - | - | - |
| 1778013625 | 15° C | 95% | 1008.5 hPa | 0.51 mm | - | - | - |
| 1778013319 | 15° C | 95% | 1008.6 hPa | 0.76 mm | - | - | - |
| 1778012118 | 15° C | 94% | 1008.6 hPa | 0.51 mm | - | - | - |
* Rain latest hour (hover to see other rain measurements)
** Current wind speed in m/s (hover to see current wind gust speed)